Weather Roundup
Issued by NWS Corpus Christi, TX

Home | Current Version | Previous Version | Text Only | Print | Product List | Glossary On
Versions: 1 2 3 4 5 6 7 8 9 10 11 12 13 14 15 16 17 18 19 20 21 22 23 24 25 26 27 28 29 30 31 32 33 34 35 36 37 38 39 40 41 42 43 44 45 46 47 48 49 50
557
ASUS44 KCRP 221210
HRRCRP

SOUTH TEXAS REGIONAL WEATHER ROUNDUP
NATIONAL WEATHER SERVICE CORPUS CHRISTI TX
700 AM CDT FRI MAY 22 2015


TXZ229>244-221300-
...CORPUS CHRISTI AREA OBSERVATIONS...

CITY           SKY/WX    TMP DP  RH WIND       PRES   REMARKS
CORPUS CHRISTI CLOUDY    74  72  93 NE3       30.02R
NAS CORPUS CHR CLOUDY    75  75 100 S5        30.02R
ROCKPORT       MOCLDY    77  73  87 SE9       30.02R
KINGSVILLE NAS CLOUDY    74  73  97 SE6       30.01R FOG
ALICE          CLOUDY    74  72  93 VRB5      30.01R
FALFURRIAS     CLOUDY    74  73  96 E7        29.99F VSB 1
$$

...VICTORIA AREA OBSERVATIONS...

CITY           SKY/WX    TMP DP  RH WIND       PRES   REMARKS
VICTORIA       CLOUDY    70  69  97 E10       30.06R
BEEVILLE       RAIN      69  69 100 E7        30.03S
PLEASANTON     CLOUDY    66  64  93 E8        30.06R FOG
SAN ANTONIO    DRZL/FOG  66  63  90 NE7       30.08R VSB 1/2
$$

...LAREDO AREA OBSERVATIONS...

CITY           SKY/WX    TMP DP  RH WIND       PRES   REMARKS
LAREDO         CLOUDY    74  72  93 E6        30.02R
COTULLA        CLOUDY    68  66  93 E5        30.04R FOG
DEL RIO        CLOUDY    68  66  93 E12G18    30.02S FOG
MCALLEN        CLOUDY    76  73  91 SE7       29.99F FOG
HEBBRONVILLE     N/A     73  73  97 SE6       30.03R FOG
$$

...OTHER TEXAS OBSERVATIONS...

CITY           SKY/WX    TMP DP  RH WIND       PRES   REMARKS
BROWNSVILLE    FOG       75  74  96 S5        30.02F VSB 1
HOUSTON        CLOUDY    67  64  90 E13       30.12R
COL. STATION   CLOUDY    65  64  97 E8        30.11R FOG
AUSTIN         FOG       64  64 100 NE6       30.08S VSB 1/4
WACO           CLOUDY    61  60  97 E6        30.13S
FORT WORTH     DRIZZLE   59  58  96 E9        30.15R
WICHITA FALLS  RAIN      57  56  96 E9        30.14R FOG
LUBBOCK        DRIZZLE   52  51  97 E7        30.12R FOG
EL PASO        MOCLDY    59  51  75 N3        30.04S
$$

...MARINE OBSERVATIONS...

STATION/POSITION TIME  SKY/WX   TEMP    WIND        PRES    VSBY  WAVE   SWELL
                                AIR SEA DIR/SP/G                  HT/PER HT/PER
                 (UTC)          (F)     (DEG/KT/KT) (MB)    (MI)  (FT/S) (FT/S)
PORT ARANSAS     1200            79 80  130/ 11/ 13 1017.0R
BUOY 90 E PORT A 1150            79 80   90/ 10/ 14 1017.7R         3/ 6   2/ 6
BUOY 45 SE BAFFI 1150            80 80  150/  8/ 10 1016.2R         3/ 5   2/ 5
BUOY 200 E PT IS 1150            81 81  130/ 12/ 14 1017.0R         2/ 6   2/ 6
BUOY 15 E GALVES 1150            72 80   50/ 17/ 19 1018.6R         4/ 4
$$



USA.gov is the U.S. government's official web portal to all federal, state and local government web resources and services.